Track IRIDIUM 100 now! 10-day predictions IRIDIUM 100 is classified as:
1 42956U 17061B 25118.73975333 .00000044 00000-0 85044-5 0 9992 2 42956 86.4032 198.3643 0002086 100.9840 259.1591 14.34218022395379